THORAD DELTA 1 DEB, 42614

Orbit data source: Space-Track

THORAD DELTA 1 DEB, 42614 is space debris in SSO originally from a launch on Fri, 15 Nov 1974 UTC launched from the Air Force Western Test Range (AFWTR). Debris objects in space refer to the collection of defunct objects orbiting the Earth. Examples of debris include non-operational satellites, rocket bodies, and fragments generated from explosions, collisions, or faulty payload assembly.

Loading next visibility...
Identifier
42614, 1974-089GF
Orbit
SSO
Country
Flag of USUS
Related business
Manufacturer
Unknown
Mission
Spacecraft
Bus & Motor
Unknown
Mass
Unknown
Launch date (UTC)
1974-11-15 (51 years ago)
Launch vehicle
Unknown
Launch site
Air Force Western Test Range (AFWTR)
Object type
Payload
Rocket body
Debris
Shape & HBR
Unknown shape, 0.1 m
Radar Cross Section
Small (<0.1 m²)

Expand to show TLE details & history
Last TLE update: 2 weeks ago

TLE from 2 weeks ago
0 THORAD DELTA 1 DEB
1 42614U 74089GF  25278.66241561  .00000589  00000-0  36693-2 0  9991
2 42614 101.8670  70.6676 0036646 298.5155  82.0073 12.59666738503937
Epoch: 2025-10-05T15:53Z
TLE epoch observation values (Epoch: 2025-10-05T15:53:52.708Z)
Latitude
20.47857°
Longitude
173.1425°
Altitude
1,422.683 km
Speed
7.153 km/s
True Right ascension
04h 24m 45s
True Declination
20° 22' 33"
Sunlit
Object was in partial shadow at epoch
Visualization orbit readout
Latitude
Unknown
Longitude
Unknown
Altitude
Unknown
Speed
Unknown
Apparent Right ascension
Unknown
Apparent Declination
Unknown
Sunlit
N/A
Visualization observer readout
Local Sidereal Time
01:44:00
Azimuth
Unknown
Elevation
Unknown
Doppler factor
Unknown
Orbital elements
Apogee altitude
1,450.445 km
Perigee altitude
1,393.277 km
Semi-major axis
7,799.998 km
Eccentricity
0.00366
Inclination
101.867°
RAAN
70.6676°
Arg. of periapsis
298.5155°
True anomaly
82.42341°
Mean anomaly
82.0073°
Eccentric anomaly
82.21533°
Mean motion
3.15066 °/min
Orbital period
114.26 mins
BSTAR
0.0036693
Loading maneuver chart data...
Computing Atmospheric mass density...

Documentation

Showing up to 5 results
|